WW3TRG Weather Reports


time (UTC)temp
C
wind
direction
speed
KPH
gust
KPH
rain 1hr
cm
rain 24hr
cm
rain mn
cm
humidity
%
barometer
mb
20260504141125 16 236 6.4 8.0 0.00 0.00 0.00 43 1012.3
20260504140622 15 90 1.6 14.5 0.00 0.00 0.00 45 1012.4
20260504140117 15 66 1.6 6.4 0.00 0.00 0.00 45 1012.4
20260504130545 14 185 3.2 3.2 0.00 0.00 0.00 52 1012.7
20260504110432 1 95 3.2 4.8 0.00 0.00 0.00 99 1013.3
20260504100355 0 151 0.0 3.2 0.00 0.00 0.00 99 1012.9
20260504081748 1 105 1.6 3.2 0.00 0.00 0.00 98 1013.4
20260504081245 1 103 1.6 1.6 0.00 0.00 0.00 97 1013.1
20260504080741 1 123 0.0 3.2 0.00 0.00 0.00 97 1013.2
20260504080238 1 109 0.0 3.2 0.00 0.00 0.00 97 1013.0
20260504070205 1 106 0.0 1.6 0.00 0.00 0.00 96 1013.2
20260504060126 2 117 0.0 1.6 0.00 0.00 0.00 93 1013.1
20260504050554 4 90 0.0 1.6 0.00 0.00 0.00 88 1012.7
20260504045548 5 126 1.6 1.6 0.00 0.00 0.00 87 1012.9
20260504045043 5 114 0.0 0.0 0.00 0.00 0.00 87 1012.8
20260504044541 5 165 0.0 0.0 0.00 0.00 0.00 86 1013.0
20260504044038 5 157 0.0 1.6 0.00 0.00 0.00 84 1013.0
20260504043535 5 162 0.0 3.2 0.00 0.00 0.00 81 1013.1
20260504043032 6 98 1.6 3.2 0.00 0.00 0.00 79 1012.9
20260504042529 6 180 0.0 3.2 0.00 0.00 0.00 78 1012.7
20260504042026 6 180 0.0 1.6 0.00 0.00 0.00 79 1012.7
20260504041522 6 187 0.0 1.6 0.00 0.00 0.00 79 1012.8
20260504041018 6 184 0.0 3.2 0.00 0.00 0.00 80 1012.7
20260504040516 6 190 3.2 3.2 0.00 0.00 0.00 79 1012.5
20260504040012 6 180 1.6 3.2 0.00 0.00 0.00 80 1012.6
20260504035509 6 175 0.0 3.2 0.00 0.00 0.00 78 1012.5
20260504035005 6 166 0.0 3.2 0.00 0.00 0.00 79 1012.6
20260504034503 6 186 0.0 3.2 0.00 0.00 0.00 79 1012.2
20260504034000 6 180 1.6 1.6 0.00 0.00 0.00 79 1012.3
20260504033458 6 180 0.0 0.0 0.00 0.00 0.00 80 1012.4
20260504032955 6 173 0.0 3.2 0.00 0.00 0.00 79 1012.2
20260504032452 6 165 0.0 0.0 0.00 0.00 0.00 78 1012.1
20260504031948 6 187 1.6 3.2 0.00 0.00 0.00 78 1012.3
20260504031445 6 180 0.0 3.2 0.00 0.00 0.00 78 1012.2
20260504030942 6 145 1.6 4.8 0.00 0.00 0.00 78 1012.2
20260504030439 6 163 4.8 4.8 0.00 0.00 0.00 76 1012.1
20260504025935 6 180 1.6 1.6 0.00 0.00 0.00 76 1012.1
20260504025432 7 180 0.0 3.2 0.00 0.00 0.00 78 1012.3
20260504024929 6 185 1.6 3.2 0.00 0.00 0.00 77 1012.1
20260504024426 7 187 0.0 4.8 0.00 0.00 0.00 78 1012.0
20260504023923 7 188 3.2 3.2 0.00 0.00 0.00 76 1012.2
20260504023419 7 184 3.2 3.2 0.00 0.00 0.00 77 1012.0
20260504022915 7 198 3.2 3.2 0.00 0.00 0.00 76 1012.2
20260504022412 7 195 3.2 3.2 0.00 0.00 0.00 76 1012.3
20260504021908 7 195 3.2 3.2 0.00 0.00 0.00 74 1012.2
20260504021406 7 185 3.2 3.2 0.00 0.00 0.00 74 1012.3
20260504020903 7 200 0.0 3.2 0.00 0.00 0.00 74 1012.1
20260504020359 7 194 0.0 3.2 0.00 0.00 0.00 73 1012.1
20260504015855 7 209 1.6 3.2 0.00 0.00 0.00 73 1012.2
20260504015352 7 203 0.0 3.2 0.00 0.00 0.00 75 1012.1
20260504014848 7 197 3.2 3.2 0.00 0.00 0.00 71 1012.1
20260504014344 8 194 0.0 4.8 0.00 0.00 0.00 74 1012.2
20260504013842 8 188 0.0 3.2 0.00 0.00 0.00 72 1012.1
20260504013339 8 172 0.0 1.6 0.00 0.00 0.00 70 1012.1
20260504012836 8 191 1.6 3.2 0.00 0.00 0.00 72 1012.0
20260504012334 8 213 0.0 4.8 0.00 0.00 0.00 70 1012.0
20260504011831 8 187 0.0 3.2 0.00 0.00 0.00 72 1012.0
20260504011327 8 184 3.2 3.2 0.00 0.00 0.00 69 1011.8
20260504010823 8 192 1.6 3.2 0.00 0.00 0.00 68 1011.9
20260504010319 8 175 0.0 1.6 0.00 0.00 0.00 69 1011.9
20260504005816 8 194 1.6 3.2 0.00 0.00 0.00 70 1011.6
20260504005313 8 188 0.0 3.2 0.00 0.00 0.00 68 1011.9
20260504004810 8 201 3.2 3.2 0.00 0.00 0.00 69 1011.7
20260504004308 8 184 3.2 3.2 0.00 0.00 0.00 67 1011.5
20260504003804 8 185 1.6 3.2 0.00 0.00 0.00 70 1011.4
20260504003301 9 174 0.0 3.2 0.00 0.00 0.00 68 1011.4
20260504002757 9 186 1.6 4.8 0.00 0.00 0.00 69 1011.5
20260504002254 10 194 0.0 3.2 0.00 0.00 0.00 67 1011.5
20260504001752 10 148 1.6 3.2 0.00 0.00 0.00 64 1011.2
20260504001249 10 160 0.0 3.2 0.00 0.00 0.00 65 1011.3
20260504000746 10 172 0.0 3.2 0.00 0.00 0.00 64 1011.2
20260504000243 11 206 0.0 3.2 0.00 0.00 0.00 61 1011.2
20260503235741 11 194 1.6 3.2 0.00 0.00 0.00 61 1011.2
20260503235238 11 173 1.6 4.8 0.00 0.00 0.00 58 1010.9
20260503234735 11 188 4.8 4.8 0.00 0.00 0.00 58 1011.0
20260503234233 12 160 0.0 3.2 0.00 0.00 0.00 56 1010.9
20260503233730 12 112 0.0 3.2 0.00 0.00 0.00 52 1010.9
20260503233226 13 144 0.0 3.2 0.00 0.00 0.00 46 1010.7
20260503232723 13 270 1.6 12.9 0.00 0.00 0.00 44 1010.8
20260503232220 13 140 0.0 3.2 0.00 0.00 0.00 47 1010.7
20260503231719 13 279 0.0 0.0 0.00 0.00 0.00 44 1010.9
20260503231215 14 135 0.0 8.0 0.00 0.00 0.00 40 1010.5
20260503230711 14 98 1.6 3.2 0.00 0.00 0.00 43 1010.9
20260503230208 15 200 9.7 17.7 0.00 0.00 0.00 39 1010.7
20260503225705 14 174 1.6 4.8 0.00 0.00 0.00 40 1010.6
20260503225200 15 195 1.6 3.2 0.00 0.00 0.00 43 1010.5
20260503224658 15 103 3.2 6.4 0.00 0.00 0.00 37 1010.5
20260503224156 15 187 6.4 6.4 0.00 0.00 0.00 39 1010.5
20260503223653 15 90 0.0 4.8 0.00 0.00 0.00 37 1010.3
20260503223149 15 270 0.0 6.4 0.00 0.00 0.00 38 1010.4
20260503222647 15 209 1.6 11.3 0.00 0.00 0.00 37 1010.6
20260503222144 15 177 0.0 4.8 0.00 0.00 0.00 36 1010.5
20260503221643 15 220 14.5 14.5 0.00 0.00 0.00 37 1010.3
20260503221139 15 305 3.2 6.4 0.00 0.00 0.00 39 1010.5
20260503220636 16 212 3.2 11.3 0.00 0.00 0.00 35 1010.4
20260503220133 16 347 9.7 9.7 0.00 0.00 0.00 36 1010.5
20260503215630 16 123 0.0 3.2 0.00 0.00 0.00 36 1010.4
20260503215126 15 156 3.2 11.3 0.00 0.00 0.00 34 1010.6
20260503214625 16 47 4.8 4.8 0.00 0.00 0.00 33 1010.3
20260503214121 16 220 4.8 14.5 0.00 0.00 0.00 34 1010.7
20260503213620 16 90 1.6 11.3 0.00 0.00 0.00 33 1010.3
20260503213116 15 15 0.0 16.1 0.00 0.00 0.00 35 1010.2
20260503212614 16 323 3.2 6.4 0.00 0.00 0.00 37 1010.5
20260503212111 16 95 6.4 11.3 0.00 0.00 0.00 35 1010.2
20260503211609 16 153 4.8 22.5 0.00 0.00 0.00 33 1010.2
20260503211104 16 172 4.8 11.3 0.00 0.00 0.00 32 1010.3
20260503210601 16 221 8.0 16.1 0.00 0.00 0.00 32 1010.2
20260503210056 16 248 0.0 16.1 0.00 0.00 0.00 31 1010.3
20260503205553 16 122 4.8 8.0 0.00 0.00 0.00 34 1010.5
20260503205049 16 180 0.0 4.8 0.00 0.00 0.00 34 1010.4
20260503204547 15 99 0.0 16.1 0.00 0.00 0.00 35 1010.4
20260503204044 16 206 4.8 17.7 0.00 0.00 0.00 33 1010.3
20260503203541 16 184 6.4 12.9 0.00 0.00 0.00 33 1010.5
20260503203038 16 90 0.0 12.9 0.00 0.00 0.00 36 1010.3
20260503202536 15 225 3.2 6.4 0.00 0.00 0.00 33 1010.5
20260503202034 15 300 1.6 14.5 0.00 0.00 0.00 33 1010.7
20260503201532 16 109 1.6 12.9 0.00 0.00 0.00 32 1010.5
20260503201028 16 201 6.4 11.3 0.00 0.00 0.00 34 1010.7
20260503200524 16 206 6.4 17.7 0.00 0.00 0.00 32 1010.8
20260503200021 15 282 6.4 19.3 0.00 0.00 0.00 34 1010.9
20260503195519 15 153 4.8 6.4 0.00 0.00 0.00 33 1010.9
20260503195015 15 245 3.2 9.7 0.00 0.00 0.00 37 1010.8
20260503194513 15 205 14.5 25.7 0.00 0.00 0.00 34 1011.0
20260503194012 15 185 1.6 9.7 0.00 0.00 0.00 35 1011.0
20260503193509 15 97 6.4 9.7 0.00 0.00 0.00 34 1011.1
20260503193004 15 172 9.7 20.9 0.00 0.00 0.00 34 1011.1
20260503192501 14 1 8.0 14.5 0.00 0.00 0.00 36 1011.3
20260503191956 13 32 3.2 27.4 0.00 0.00 0.00 35 1011.4
20260503191454 15 187 9.7 11.3 0.00 0.00 0.00 33 1011.7
20260503190950 15 190 8.0 8.0 0.00 0.00 0.00 35 1011.6
20260503190447 13 195 4.8 22.5 0.00 0.00 0.00 36 1011.4
20260503185944 16 226 8.0 14.5 0.00 0.00 0.00 35 1011.5
20260503185441 15 184 3.2 9.7 0.00 0.00 0.00 35 1011.8
20260503184940 13 63 1.6 6.4 0.00 0.00 0.00 42 1011.5
20260503184437 13 128 4.8 12.9 0.00 0.00 0.00 36 1011.8
20260503183933 13 19 3.2 12.9 0.00 0.00 0.00 37 1011.8
20260503183430 12 153 4.8 8.0 0.00 0.00 0.00 37 1011.9
20260503182927 12 156 19.3 20.9 0.00 0.00 0.00 37 1012.0
20260503182426 13 139 0.0 6.4 0.00 0.00 0.00 37 1012.0
20260503181923 12 108 6.4 9.7 0.00 0.00 0.00 36 1012.0
20260503181420 12 133 8.0 24.1 0.00 0.00 0.00 36 1011.7
20260503180916 13 56 8.0 22.5 0.00 0.00 0.00 34 1011.8
20260503180414 14 346 3.2 12.9 0.00 0.00 0.00 35 1011.9
20260503175910 14 63 0.0 8.0 0.00 0.00 0.00 42 1011.8
20260503175409 13 246 4.8 14.5 0.00 0.00 0.00 35 1011.7
20260503174904 14 154 1.6 25.7 0.00 0.00 0.00 36 1011.8
20260503174402 13 199 4.8 27.4 0.00 0.00 0.00 35 1011.8
20260503173857 13 112 0.0 27.4 0.00 0.00 0.00 37 1012.0
20260503173354 13 32 4.8 17.7 0.00 0.00 0.00 38 1012.1
20260503172850 13 16 3.2 9.7 0.00 0.00 0.00 38 1012.2
20260503172348 13 205 9.7 12.9 0.00 0.00 0.00 35 1012.0
20260503171844 13 217 14.5 25.7 0.00 0.00 0.00 34 1012.0
20260503171341 13 29 8.0 22.5 0.00 0.00 0.00 38 1012.0
20260503170838 13 90 6.4 29.0 0.00 0.00 0.00 36 1012.4
20260503170334 12 199 6.4 30.6 0.00 0.00 0.00 36 1012.3
20260503150727 9 157 1.6 29.0 0.00 0.00 0.00 51 1013.1
20260503150223 8 197 9.7 17.7 0.00 0.00 0.00 50 1013.2